Year,Month,Day,Hour,Minute,Value (Times are PST for temperature in C)
2017,04,03,00,00,5.10
2017,04,03,00,01,5.10
2017,04,03,00,02,5.10
2017,04,03,00,03,5.10
2017,04,03,00,04,5.20
2017,04,03,00,05,5.10
2017,04,03,00,06,5.10
2017,04,03,00,07,5.10
2017,04,03,00,08,5.10
2017,04,03,00,09,5.10
2017,04,03,00,10,5.10
2017,04,03,00,11,5.10
2017,04,03,00,12,5.10
2017,04,03,00,13,5.10
2017,04,03,00,14,5.10
2017,04,03,00,15,5.10
2017,04,03,00,16,5.00
2017,04,03,00,17,5.00
2017,04,03,00,18,5.00
2017,04,03,00,19,5.00
2017,04,03,00,20,5.00
2017,04,03,00,21,5.00
2017,04,03,00,22,5.00
2017,04,03,00,23,5.00
2017,04,03,00,24,5.00
2017,04,03,00,25,5.00
2017,04,03,00,26,5.00
2017,04,03,00,27,4.90
2017,04,03,00,28,4.90
2017,04,03,00,29,4.90
2017,04,03,00,30,4.90
2017,04,03,00,31,4.90
2017,04,03,00,32,4.90
2017,04,03,00,33,4.90
2017,04,03,00,34,4.90
2017,04,03,00,35,4.90
2017,04,03,00,36,4.90
2017,04,03,00,37,4.90
2017,04,03,00,38,4.90
2017,04,03,00,39,4.90
2017,04,03,00,40,4.90
2017,04,03,00,41,4.90
2017,04,03,00,42,4.90
2017,04,03,00,43,4.90
2017,04,03,00,44,4.90
2017,04,03,00,45,4.90
2017,04,03,00,46,4.90
2017,04,03,00,47,4.90
2017,04,03,00,48,4.90
2017,04,03,00,49,4.90
2017,04,03,00,50,4.80
2017,04,03,00,51,4.80
2017,04,03,00,52,4.80
2017,04,03,00,53,4.80
2017,04,03,00,54,4.80
2017,04,03,00,55,4.80
2017,04,03,00,56,4.80
2017,04,03,00,57,4.80
2017,04,03,00,58,4.80
2017,04,03,00,59,4.80
2017,04,03,01,00,4.80
2017,04,03,01,01,4.80
2017,04,03,01,02,4.80
2017,04,03,01,03,4.80
2017,04,03,01,04,4.70
2017,04,03,01,05,4.70
2017,04,03,01,06,4.70
2017,04,03,01,07,4.70
2017,04,03,01,08,4.70
2017,04,03,01,09,4.70
2017,04,03,01,10,4.70
2017,04,03,01,11,4.70
2017,04,03,01,12,4.70
2017,04,03,01,13,4.70
2017,04,03,01,14,4.70
2017,04,03,01,15,4.70
2017,04,03,01,16,4.70
2017,04,03,01,17,4.70
2017,04,03,01,18,4.70
2017,04,03,01,19,4.70
2017,04,03,01,20,4.70
2017,04,03,01,21,4.70
2017,04,03,01,22,4.70
2017,04,03,01,23,4.80
2017,04,03,01,24,4.80
2017,04,03,01,25,4.80
2017,04,03,01,26,4.80
2017,04,03,01,27,4.80
2017,04,03,01,28,4.80
2017,04,03,01,29,4.80
2017,04,03,01,30,4.80
2017,04,03,01,31,4.80
2017,04,03,01,32,4.80
2017,04,03,01,33,4.80
2017,04,03,01,34,4.80
2017,04,03,01,35,4.80
2017,04,03,01,36,4.80
2017,04,03,01,37,4.80
2017,04,03,01,38,4.80
2017,04,03,01,39,4.80
2017,04,03,01,40,4.80
2017,04,03,01,41,4.80
2017,04,03,01,42,4.80
2017,04,03,01,43,4.80
2017,04,03,01,44,4.70
2017,04,03,01,45,4.70
2017,04,03,01,46,4.70
2017,04,03,01,47,4.70
2017,04,03,01,48,4.70
2017,04,03,01,49,4.70
2017,04,03,01,50,4.60
2017,04,03,01,51,4.60
2017,04,03,01,52,4.60
2017,04,03,01,53,4.60
2017,04,03,01,54,4.60
2017,04,03,01,55,4.60
2017,04,03,01,56,4.60
2017,04,03,01,57,4.50
2017,04,03,01,58,4.50
2017,04,03,01,59,4.50
2017,04,03,02,00,4.50
2017,04,03,02,01,4.40
2017,04,03,02,02,4.40
2017,04,03,02,03,4.40
2017,04,03,02,04,4.40
2017,04,03,02,05,4.30
2017,04,03,02,06,4.30
2017,04,03,02,07,4.30
2017,04,03,02,08,4.30
2017,04,03,02,09,4.30
2017,04,03,02,10,4.20
2017,04,03,02,11,4.20
2017,04,03,02,12,4.20
2017,04,03,02,13,4.20
2017,04,03,02,14,4.20
2017,04,03,02,15,4.10
2017,04,03,02,16,4.10
2017,04,03,02,17,4.10
2017,04,03,02,18,4.10
2017,04,03,02,19,4.00
2017,04,03,02,20,4.00
2017,04,03,02,21,3.90
2017,04,03,02,22,3.90
2017,04,03,02,23,3.90
2017,04,03,02,24,3.80
2017,04,03,02,25,3.80
2017,04,03,02,26,3.80
2017,04,03,02,27,3.70
2017,04,03,02,28,3.70
2017,04,03,02,29,3.60
2017,04,03,02,30,3.40
2017,04,03,02,31,3.30
2017,04,03,02,32,3.20
2017,04,03,02,33,3.10
2017,04,03,02,34,2.90
2017,04,03,02,35,2.80
2017,04,03,02,36,2.70
2017,04,03,02,37,2.60
2017,04,03,02,38,2.50
2017,04,03,02,39,2.40
2017,04,03,02,40,2.30
2017,04,03,02,41,2.30
2017,04,03,02,42,2.20
2017,04,03,02,43,2.10
2017,04,03,02,44,2.10
2017,04,03,02,45,2.00
2017,04,03,02,46,1.90
2017,04,03,02,47,1.90
2017,04,03,02,48,1.80
2017,04,03,02,49,1.80
2017,04,03,02,50,1.80
2017,04,03,02,51,1.70
2017,04,03,02,52,1.70
2017,04,03,02,53,1.70
2017,04,03,02,54,1.60
2017,04,03,02,55,1.60
2017,04,03,02,56,1.50
2017,04,03,02,57,1.50
2017,04,03,02,58,1.40
2017,04,03,02,59,1.40
2017,04,03,03,00,1.40
2017,04,03,03,01,1.30
2017,04,03,03,02,1.30
2017,04,03,03,03,1.30
2017,04,03,03,04,1.30
2017,04,03,03,05,1.20
2017,04,03,03,06,1.20
2017,04,03,03,07,1.10
2017,04,03,03,08,1.10
2017,04,03,03,09,1.10
2017,04,03,03,10,1.00
2017,04,03,03,11,1.00
2017,04,03,03,12,0.90
2017,04,03,03,13,0.90
2017,04,03,03,14,0.90
2017,04,03,03,15,0.90
2017,04,03,03,16,0.80
2017,04,03,03,17,0.80
2017,04,03,03,18,0.80
2017,04,03,03,19,0.70
2017,04,03,03,20,0.70
2017,04,03,03,21,0.70
2017,04,03,03,22,0.70
2017,04,03,03,23,0.70
2017,04,03,03,24,0.60
2017,04,03,03,25,0.60
2017,04,03,03,26,0.60
2017,04,03,03,27,0.50
2017,04,03,03,28,0.50
2017,04,03,03,29,0.50
2017,04,03,03,30,0.40
2017,04,03,03,31,0.40
2017,04,03,03,32,0.40
2017,04,03,03,33,0.30
2017,04,03,03,34,0.30
2017,04,03,03,35,0.30
2017,04,03,03,36,0.20
2017,04,03,03,37,0.20
2017,04,03,03,38,0.20
2017,04,03,03,39,0.20
2017,04,03,03,40,0.20
2017,04,03,03,41,0.20
2017,04,03,03,42,0.20
2017,04,03,03,43,0.20
2017,04,03,03,44,0.20
2017,04,03,03,45,0.20
2017,04,03,03,46,0.20
2017,04,03,03,47,0.20
2017,04,03,03,48,0.20
2017,04,03,03,49,0.20
2017,04,03,03,50,0.10
2017,04,03,03,51,0.10
2017,04,03,03,52,0.10
2017,04,03,03,53,0.10
2017,04,03,03,54,0.10
2017,04,03,03,55,0.00
2017,04,03,03,56,0.00
2017,04,03,03,57,0.00
2017,04,03,03,58,0.00
2017,04,03,03,59,-0.10
2017,04,03,04,00,-0.10
2017,04,03,04,01,-0.10
2017,04,03,04,02,-0.10
2017,04,03,04,03,-0.10
2017,04,03,04,04,-0.10
2017,04,03,04,05,-0.20
2017,04,03,04,06,-0.20
2017,04,03,04,07,-0.20
2017,04,03,04,08,-0.20
2017,04,03,04,09,-0.30
2017,04,03,04,10,-0.30
2017,04,03,04,11,-0.30
2017,04,03,04,12,-0.30
2017,04,03,04,13,-0.30
2017,04,03,04,14,-0.40
2017,04,03,04,15,-0.40
2017,04,03,04,16,-0.40
2017,04,03,04,17,-0.50
2017,04,03,04,18,-0.50
2017,04,03,04,19,-0.50
2017,04,03,04,20,-0.50
2017,04,03,04,21,-0.60
2017,04,03,04,22,-0.60
2017,04,03,04,23,-0.60
2017,04,03,04,24,-0.60
2017,04,03,04,25,-0.60
2017,04,03,04,26,-0.70
2017,04,03,04,27,-0.70
2017,04,03,04,28,-0.70
2017,04,03,04,29,-0.70
2017,04,03,04,30,-0.70
2017,04,03,04,31,-0.80
2017,04,03,04,32,-0.80
2017,04,03,04,33,-0.80
2017,04,03,04,34,-0.80
2017,04,03,04,35,-0.80
2017,04,03,04,36,-0.80
2017,04,03,04,37,-0.80
2017,04,03,04,38,-0.80
2017,04,03,04,39,-0.80
2017,04,03,04,40,-0.90
2017,04,03,04,41,-0.90
2017,04,03,04,42,-0.90
2017,04,03,04,43,-0.90
2017,04,03,04,44,-0.90
2017,04,03,04,45,-0.90
2017,04,03,04,46,-0.90
2017,04,03,04,47,-0.90
2017,04,03,04,48,-0.90
2017,04,03,04,49,-0.90
2017,04,03,04,50,-0.90
2017,04,03,04,51,-0.90
2017,04,03,04,52,-0.90
2017,04,03,04,53,-1.00
2017,04,03,04,54,-1.00
2017,04,03,04,55,-1.00
2017,04,03,04,56,-1.00
2017,04,03,04,57,-1.00
2017,04,03,04,58,-1.00
2017,04,03,04,59,-1.00
2017,04,03,05,00,-1.00
2017,04,03,05,01,-1.00
2017,04,03,05,02,-1.00
2017,04,03,05,03,-1.00
2017,04,03,05,04,-1.10
2017,04,03,05,05,-1.10
2017,04,03,05,06,-1.10
2017,04,03,05,07,-1.10
2017,04,03,05,08,-1.10
2017,04,03,05,09,-1.10
2017,04,03,05,10,-1.10
2017,04,03,05,11,-1.10
2017,04,03,05,12,-1.10
2017,04,03,05,13,-1.10
2017,04,03,05,14,-1.20
2017,04,03,05,15,-1.20
2017,04,03,05,16,-1.20
2017,04,03,05,17,-1.20
2017,04,03,05,18,-1.20
2017,04,03,05,19,-1.20
2017,04,03,05,20,-1.20
2017,04,03,05,21,-1.20
2017,04,03,05,22,-1.20
2017,04,03,05,23,-1.20
2017,04,03,05,24,-1.30
2017,04,03,05,25,-1.30
2017,04,03,05,26,-1.30
2017,04,03,05,27,-1.30
2017,04,03,05,28,-1.30
2017,04,03,05,29,-1.30
2017,04,03,05,30,-1.30
2017,04,03,05,31,-1.30
2017,04,03,05,32,-1.40
2017,04,03,05,33,-1.40
2017,04,03,05,34,-1.40
2017,04,03,05,35,-1.40
2017,04,03,05,36,-1.40
2017,04,03,05,37,-1.40
2017,04,03,05,38,-1.40
2017,04,03,05,39,-1.40
2017,04,03,05,40,-1.40
2017,04,03,05,41,-1.40
2017,04,03,05,42,-1.40
2017,04,03,05,43,-1.50
2017,04,03,05,44,-1.40
2017,04,03,05,45,-1.50
2017,04,03,05,46,-1.50
2017,04,03,05,47,-1.50
2017,04,03,05,48,-1.50
2017,04,03,05,49,-1.50
2017,04,03,05,50,-1.50
2017,04,03,05,51,-1.50
2017,04,03,05,52,-1.50
2017,04,03,05,53,-1.50
2017,04,03,05,54,-1.50
2017,04,03,05,55,-1.50
2017,04,03,05,56,-1.50
2017,04,03,05,57,-1.50
2017,04,03,05,58,-1.50
2017,04,03,05,59,-1.50
2017,04,03,06,00,-1.50
2017,04,03,06,01,-1.50
2017,04,03,06,02,-1.50
2017,04,03,06,03,-1.50
2017,04,03,06,04,-1.50
2017,04,03,06,05,-1.50
2017,04,03,06,06,-1.50
2017,04,03,06,07,-1.50
2017,04,03,06,08,-1.60
2017,04,03,06,09,-1.60
2017,04,03,06,10,-1.60
2017,04,03,06,11,-1.60
2017,04,03,06,12,-1.70
2017,04,03,06,13,-1.70
2017,04,03,06,14,-1.70
2017,04,03,06,15,-1.70
2017,04,03,06,16,-1.70
2017,04,03,06,17,-1.70
2017,04,03,06,18,-1.80
2017,04,03,06,19,-1.80
2017,04,03,06,20,-1.80
2017,04,03,06,21,-1.80
2017,04,03,06,22,-1.80
2017,04,03,06,23,-1.80
2017,04,03,06,24,-1.80
2017,04,03,06,25,-1.80
2017,04,03,06,26,-1.80
2017,04,03,06,27,-1.80
2017,04,03,06,28,-1.80
2017,04,03,06,29,-1.80
2017,04,03,06,30,-1.80
2017,04,03,06,31,-1.80
2017,04,03,06,32,-1.80
2017,04,03,06,33,-1.80
2017,04,03,06,34,-1.80
2017,04,03,06,35,-1.80
2017,04,03,06,36,-1.90
2017,04,03,06,37,-1.90
2017,04,03,06,38,-1.90
2017,04,03,06,39,-1.90
2017,04,03,06,40,-1.90
2017,04,03,06,41,-1.90
2017,04,03,06,42,-1.90
2017,04,03,06,43,-2.00
2017,04,03,06,44,-2.00
2017,04,03,06,45,-2.00
2017,04,03,06,46,-2.00
2017,04,03,06,47,-2.00
2017,04,03,06,48,-2.10
2017,04,03,06,49,-2.10
2017,04,03,06,50,-2.10
2017,04,03,06,51,-2.10
2017,04,03,06,52,-2.00
2017,04,03,06,53,-2.00
2017,04,03,06,54,-2.00
2017,04,03,06,55,-2.00
2017,04,03,06,56,-2.00
2017,04,03,06,57,-1.90
2017,04,03,06,58,-1.90
2017,04,03,06,59,-1.90
2017,04,03,07,00,-1.90
2017,04,03,07,01,-1.90
2017,04,03,07,02,-1.90
2017,04,03,07,03,-1.90
2017,04,03,07,04,-1.90
2017,04,03,07,05,-1.90
2017,04,03,07,06,-1.90
2017,04,03,07,07,-1.90
2017,04,03,07,08,-1.90
2017,04,03,07,09,-1.90
2017,04,03,07,10,-2.00
2017,04,03,07,11,-2.00
2017,04,03,07,12,-2.00
2017,04,03,07,13,-2.00
2017,04,03,07,14,-2.00
2017,04,03,07,15,-2.00
2017,04,03,07,16,-2.00
2017,04,03,07,17,-2.00
2017,04,03,07,18,-2.00
2017,04,03,07,19,-2.00
2017,04,03,07,20,-2.00
2017,04,03,07,21,-2.00
2017,04,03,07,22,-2.00
2017,04,03,07,23,-2.00
2017,04,03,07,24,-2.00
2017,04,03,07,25,-2.00
2017,04,03,07,26,-2.00
2017,04,03,07,27,-2.00
2017,04,03,07,28,-2.00
2017,04,03,07,29,-2.10
2017,04,03,07,30,-2.10
2017,04,03,07,31,-2.10
2017,04,03,07,32,-2.10
2017,04,03,07,33,-2.10
2017,04,03,07,34,-2.10
2017,04,03,07,35,-2.10
2017,04,03,07,36,-2.10
2017,04,03,07,37,-2.10
2017,04,03,07,38,-2.10
2017,04,03,07,39,-2.10
2017,04,03,07,40,-2.10
2017,04,03,07,41,-2.00
2017,04,03,07,42,-2.00
2017,04,03,07,43,-2.00
2017,04,03,07,44,-2.00
2017,04,03,07,45,-2.00
2017,04,03,07,46,-2.00
2017,04,03,07,47,-1.90
2017,04,03,07,48,-1.90
2017,04,03,07,49,-1.90
2017,04,03,07,50,-1.90
2017,04,03,07,51,-1.90
2017,04,03,07,52,-1.90
2017,04,03,07,53,-1.90
2017,04,03,07,54,-1.90
2017,04,03,07,55,-1.90
2017,04,03,07,56,-1.90
2017,04,03,07,57,-1.90
2017,04,03,07,58,-1.90
2017,04,03,07,59,-1.80
2017,04,03,08,00,-1.80
2017,04,03,08,01,-1.80
2017,04,03,08,02,-1.70
2017,04,03,08,03,-1.60
2017,04,03,08,04,-1.50
2017,04,03,08,05,-1.50
2017,04,03,08,06,-1.40
2017,04,03,08,07,-1.30
2017,04,03,08,08,-1.20
2017,04,03,08,09,-1.20
2017,04,03,08,10,-1.10
2017,04,03,08,11,-1.10
2017,04,03,08,12,-1.00
2017,04,03,08,13,-1.00
2017,04,03,08,14,-0.90
2017,04,03,08,15,-0.90
2017,04,03,08,16,-0.80
2017,04,03,08,17,-0.80
2017,04,03,08,18,-0.70
2017,04,03,08,19,-0.70
2017,04,03,08,20,-0.70
2017,04,03,08,21,-0.60
2017,04,03,08,22,-0.60
2017,04,03,08,23,-0.50
2017,04,03,08,24,-0.50
2017,04,03,08,25,-0.40
2017,04,03,08,26,-0.40
2017,04,03,08,27,-0.30
2017,04,03,08,28,-0.30
2017,04,03,08,29,-0.20
2017,04,03,08,30,-0.20
2017,04,03,08,31,-0.10
2017,04,03,08,32,0.00
2017,04,03,08,33,0.10
2017,04,03,08,34,0.20
2017,04,03,08,35,0.30
2017,04,03,08,36,0.40
2017,04,03,08,37,0.50
2017,04,03,08,38,0.60
2017,04,03,08,39,0.70
2017,04,03,08,40,0.70
2017,04,03,08,41,0.80
2017,04,03,08,42,0.90
2017,04,03,08,43,1.00
2017,04,03,08,44,1.10
2017,04,03,08,45,1.20
2017,04,03,08,46,1.30
2017,04,03,08,47,1.40
2017,04,03,08,48,1.50
2017,04,03,08,49,1.60
2017,04,03,08,50,1.60
2017,04,03,08,51,1.70
2017,04,03,08,52,1.80
2017,04,03,08,53,1.90
2017,04,03,08,54,2.00
2017,04,03,08,55,2.00
2017,04,03,08,56,2.10
2017,04,03,08,57,2.20
2017,04,03,08,58,2.20
2017,04,03,08,59,2.30
2017,04,03,09,00,2.40
2017,04,03,09,01,2.40
2017,04,03,09,02,2.50
2017,04,03,09,03,2.60
2017,04,03,09,04,2.60
2017,04,03,09,05,2.70
2017,04,03,09,06,2.70
2017,04,03,09,07,2.80
2017,04,03,09,08,2.90
2017,04,03,09,09,3.00
2017,04,03,09,10,3.00
2017,04,03,09,11,3.10
2017,04,03,09,12,3.20
2017,04,03,09,13,3.20
2017,04,03,09,14,3.30
2017,04,03,09,15,3.30
2017,04,03,09,16,3.30
2017,04,03,09,17,3.40
2017,04,03,09,18,3.40
2017,04,03,09,19,3.50
2017,04,03,09,20,3.60
2017,04,03,09,21,3.60
2017,04,03,09,22,3.70
2017,04,03,09,23,3.70
2017,04,03,09,24,3.80
2017,04,03,09,25,3.80
2017,04,03,09,26,3.80
2017,04,03,09,27,3.90
2017,04,03,09,28,3.90
2017,04,03,09,29,4.00
2017,04,03,09,30,4.10
2017,04,03,09,31,4.10
2017,04,03,09,32,4.20
2017,04,03,09,33,4.20
2017,04,03,09,34,4.30
2017,04,03,09,35,4.40
2017,04,03,09,36,4.40
2017,04,03,09,37,4.50
2017,04,03,09,38,4.60
2017,04,03,09,39,4.60
2017,04,03,09,40,4.70
2017,04,03,09,41,4.80
2017,04,03,09,42,4.80
2017,04,03,09,43,4.90
2017,04,03,09,44,5.00
2017,04,03,09,45,5.00
2017,04,03,09,46,5.10
2017,04,03,09,47,5.20
2017,04,03,09,48,5.20
2017,04,03,09,49,5.20
2017,04,03,09,50,5.30
2017,04,03,09,51,5.40
2017,04,03,09,52,5.40
2017,04,03,09,53,5.50
2017,04,03,09,54,5.60
2017,04,03,09,55,5.60
2017,04,03,09,56,5.70
2017,04,03,09,57,5.70
2017,04,03,09,58,5.70
2017,04,03,09,59,5.70
2017,04,03,10,00,5.70
2017,04,03,10,01,5.70
2017,04,03,10,02,5.70
2017,04,03,10,03,5.70
2017,04,03,10,04,5.70
2017,04,03,10,05,5.80
2017,04,03,10,06,5.80
2017,04,03,10,07,5.80
2017,04,03,10,08,5.90
2017,04,03,10,09,5.90
2017,04,03,10,10,6.00
2017,04,03,10,11,6.00
2017,04,03,10,12,6.00
2017,04,03,10,13,6.10
2017,04,03,10,14,6.10
2017,04,03,10,15,6.10
2017,04,03,10,16,6.20
2017,04,03,10,17,6.20
2017,04,03,10,18,6.30
2017,04,03,10,19,6.30
2017,04,03,10,20,6.40
2017,04,03,10,21,6.40
2017,04,03,10,22,6.50
2017,04,03,10,23,6.50
2017,04,03,10,24,6.60
2017,04,03,10,25,6.60
2017,04,03,10,26,6.70
2017,04,03,10,27,6.70
2017,04,03,10,28,6.80
2017,04,03,10,29,6.90
2017,04,03,10,30,7.00
2017,04,03,10,31,7.00
2017,04,03,10,32,7.10
2017,04,03,10,33,7.10
2017,04,03,10,34,7.20
2017,04,03,10,35,7.20
2017,04,03,10,36,7.10
2017,04,03,10,37,7.10
2017,04,03,10,38,7.10
2017,04,03,10,39,7.00
2017,04,03,10,40,7.00
2017,04,03,10,41,6.90
2017,04,03,10,42,6.80
2017,04,03,10,43,6.80
2017,04,03,10,44,6.70
2017,04,03,10,45,6.70
2017,04,03,10,46,6.70
2017,04,03,10,47,6.80
2017,04,03,10,48,6.80
2017,04,03,10,49,6.80
2017,04,03,10,50,6.90
2017,04,03,10,51,6.90
2017,04,03,10,52,7.00
2017,04,03,10,53,7.00
2017,04,03,10,54,7.10
2017,04,03,10,55,7.20
2017,04,03,10,56,7.30
2017,04,03,10,57,7.40
2017,04,03,10,58,7.50
2017,04,03,10,59,7.60
2017,04,03,11,00,7.70
2017,04,03,11,01,7.80
2017,04,03,11,02,7.80
2017,04,03,11,03,7.80
2017,04,03,11,04,7.80
2017,04,03,11,05,7.90
2017,04,03,11,06,7.90
2017,04,03,11,07,8.00
2017,04,03,11,08,8.00
2017,04,03,11,09,8.00
2017,04,03,11,10,8.10
2017,04,03,11,11,8.10
2017,04,03,11,12,8.20
2017,04,03,11,13,8.20
2017,04,03,11,14,8.20
2017,04,03,11,15,8.30
2017,04,03,11,16,8.30
2017,04,03,11,17,8.30
2017,04,03,11,18,8.20
2017,04,03,11,19,8.10
2017,04,03,11,20,8.10
2017,04,03,11,21,8.10
2017,04,03,11,22,8.10
2017,04,03,11,23,8.10
2017,04,03,11,24,8.10
2017,04,03,11,25,8.10
2017,04,03,11,26,8.10
2017,04,03,11,27,8.00
2017,04,03,11,28,8.00
2017,04,03,11,29,8.10
2017,04,03,11,30,8.10
2017,04,03,11,31,8.10
2017,04,03,11,32,8.10
2017,04,03,11,33,8.00
2017,04,03,11,34,8.00
2017,04,03,11,35,7.90
2017,04,03,11,36,7.90
2017,04,03,11,37,7.80
2017,04,03,11,38,7.80
2017,04,03,11,39,7.80
2017,04,03,11,40,7.80
2017,04,03,11,41,7.80
2017,04,03,11,42,7.80
2017,04,03,11,43,7.80
2017,04,03,11,44,7.80
2017,04,03,11,45,7.80
2017,04,03,11,46,7.80
2017,04,03,11,47,7.80
2017,04,03,11,48,7.80
2017,04,03,11,49,7.80
2017,04,03,11,50,7.70
2017,04,03,11,51,7.70
2017,04,03,11,52,7.70
2017,04,03,11,53,7.80
2017,04,03,11,54,7.80
2017,04,03,11,55,7.80
2017,04,03,11,56,7.80
2017,04,03,11,57,7.70
2017,04,03,11,58,7.70
2017,04,03,11,59,7.70
2017,04,03,12,00,7.70
2017,04,03,12,01,7.70
2017,04,03,12,02,7.70
2017,04,03,12,03,7.60
2017,04,03,12,04,7.60
2017,04,03,12,05,7.50
2017,04,03,12,06,7.50
2017,04,03,12,07,7.50
2017,04,03,12,08,7.60
2017,04,03,12,09,7.60
2017,04,03,12,10,7.60
2017,04,03,12,11,7.70
2017,04,03,12,12,7.70
2017,04,03,12,13,7.70
2017,04,03,12,14,7.70
2017,04,03,12,15,7.70
2017,04,03,12,16,7.70
2017,04,03,12,17,7.70
2017,04,03,12,18,7.70
2017,04,03,12,19,7.70
2017,04,03,12,20,7.70
2017,04,03,12,21,7.70
2017,04,03,12,22,7.80
2017,04,03,12,23,7.80
2017,04,03,12,24,7.80
2017,04,03,12,25,7.90
2017,04,03,12,26,7.90
2017,04,03,12,27,7.90
2017,04,03,12,28,7.90
2017,04,03,12,29,8.00
2017,04,03,12,30,8.00
2017,04,03,12,31,8.00
2017,04,03,12,32,8.00
2017,04,03,12,33,8.10
2017,04,03,12,34,8.10
2017,04,03,12,35,8.20
2017,04,03,12,36,8.20
2017,04,03,12,37,8.30
2017,04,03,12,38,8.40
2017,04,03,12,39,8.40
2017,04,03,12,40,8.50
2017,04,03,12,41,8.60
2017,04,03,12,42,8.70
2017,04,03,12,43,8.80
2017,04,03,12,44,8.80
2017,04,03,12,45,8.90
2017,04,03,12,46,9.00
2017,04,03,12,47,9.10
2017,04,03,12,48,9.10
2017,04,03,12,49,9.20
2017,04,03,12,50,9.20
2017,04,03,12,51,9.30
2017,04,03,12,52,9.30
2017,04,03,12,53,9.40
2017,04,03,12,54,9.40
2017,04,03,12,55,9.40
2017,04,03,12,56,9.50
2017,04,03,12,57,9.60
2017,04,03,12,58,9.60
2017,04,03,12,59,9.60
2017,04,03,13,00,9.60
2017,04,03,13,01,9.60
2017,04,03,13,02,9.70
2017,04,03,13,03,9.70
2017,04,03,13,04,9.70
2017,04,03,13,05,9.80
2017,04,03,13,06,9.80
2017,04,03,13,07,9.80
2017,04,03,13,08,9.80
2017,04,03,13,09,9.80
2017,04,03,13,10,9.80
2017,04,03,13,11,9.80
2017,04,03,13,12,9.80
2017,04,03,13,13,9.90
2017,04,03,13,14,9.90
2017,04,03,13,15,9.90
2017,04,03,13,16,10.00
2017,04,03,13,17,10.10
2017,04,03,13,18,10.10
2017,04,03,13,19,10.20
2017,04,03,13,20,10.10
2017,04,03,13,21,10.10
2017,04,03,13,22,10.10
2017,04,03,13,23,10.10
2017,04,03,13,24,10.10
2017,04,03,13,25,10.00
2017,04,03,13,26,10.00
2017,04,03,13,27,10.00
2017,04,03,13,28,10.00
2017,04,03,13,29,10.10
2017,04,03,13,30,10.00
2017,04,03,13,31,10.00
2017,04,03,13,32,9.90
2017,04,03,13,33,9.90
2017,04,03,13,34,9.90
2017,04,03,13,35,9.90
2017,04,03,13,36,9.90
2017,04,03,13,37,9.90
2017,04,03,13,38,10.00
2017,04,03,13,39,10.00
2017,04,03,13,40,9.90
2017,04,03,13,41,9.80
2017,04,03,13,42,9.70
2017,04,03,13,43,9.70
2017,04,03,13,44,9.70
2017,04,03,13,45,9.70
2017,04,03,13,46,9.80
2017,04,03,13,47,9.70
2017,04,03,13,48,9.70
2017,04,03,13,49,9.70
2017,04,03,13,50,9.70
2017,04,03,13,51,9.70
2017,04,03,13,52,9.70
2017,04,03,13,53,9.70
2017,04,03,13,54,9.80
2017,04,03,13,55,9.90
2017,04,03,13,56,10.00
2017,04,03,13,57,10.00
2017,04,03,13,58,10.10
2017,04,03,13,59,10.10
2017,04,03,14,00,10.10
2017,04,03,14,01,10.10
2017,04,03,14,02,10.10
2017,04,03,14,03,10.20
2017,04,03,14,04,10.10
2017,04,03,14,05,10.20
2017,04,03,14,06,10.20
2017,04,03,14,07,10.20
2017,04,03,14,08,10.20
2017,04,03,14,09,10.20
2017,04,03,14,10,10.10
2017,04,03,14,11,10.00
2017,04,03,14,12,9.90
2017,04,03,14,13,9.80
2017,04,03,14,14,9.80
2017,04,03,14,15,9.80
2017,04,03,14,16,9.80
2017,04,03,14,17,9.80
2017,04,03,14,18,9.90
2017,04,03,14,19,10.00
2017,04,03,14,20,10.10
2017,04,03,14,21,10.20
2017,04,03,14,22,10.30
2017,04,03,14,23,10.30
2017,04,03,14,24,10.40
2017,04,03,14,25,10.40
2017,04,03,14,26,10.50
2017,04,03,14,27,10.40
2017,04,03,14,28,10.30
2017,04,03,14,29,10.20
2017,04,03,14,30,10.20
2017,04,03,14,31,10.20
2017,04,03,14,32,10.30
2017,04,03,14,33,10.30
2017,04,03,14,34,10.40
2017,04,03,14,35,10.40
2017,04,03,14,36,10.30
2017,04,03,14,37,10.30
2017,04,03,14,38,10.30
2017,04,03,14,39,10.30
2017,04,03,14,40,10.30
2017,04,03,14,41,10.40
2017,04,03,14,42,10.40
2017,04,03,14,43,10.50
2017,04,03,14,44,10.50
2017,04,03,14,45,10.60
2017,04,03,14,46,10.50
2017,04,03,14,47,10.50
2017,04,03,14,48,10.60
2017,04,03,14,49,10.60
2017,04,03,14,50,10.60
2017,04,03,14,51,10.70
2017,04,03,14,52,10.80
2017,04,03,14,53,10.80
2017,04,03,14,54,10.90
2017,04,03,14,55,11.00
2017,04,03,14,56,11.10
2017,04,03,14,57,11.20
2017,04,03,14,58,11.30
2017,04,03,14,59,11.40
2017,04,03,15,00,11.50
2017,04,03,15,01,11.50
2017,04,03,15,02,11.50
2017,04,03,15,03,11.40
2017,04,03,15,04,11.40
2017,04,03,15,05,11.30
2017,04,03,15,06,11.30
2017,04,03,15,07,11.20
2017,04,03,15,08,11.20
2017,04,03,15,09,11.10
2017,04,03,15,10,11.10
2017,04,03,15,11,11.00
2017,04,03,15,12,11.00
2017,04,03,15,13,11.00
2017,04,03,15,14,10.90
2017,04,03,15,15,10.90
2017,04,03,15,16,11.00
2017,04,03,15,17,11.00
2017,04,03,15,18,11.10
2017,04,03,15,19,11.10
2017,04,03,15,20,11.20
2017,04,03,15,21,11.30
2017,04,03,15,22,11.30
2017,04,03,15,23,11.30
2017,04,03,15,24,11.30
2017,04,03,15,25,11.30
2017,04,03,15,26,11.30
2017,04,03,15,27,11.20
2017,04,03,15,28,11.20
2017,04,03,15,29,11.20
2017,04,03,15,30,11.10
2017,04,03,15,31,11.00
2017,04,03,15,32,11.00
2017,04,03,15,33,10.90
2017,04,03,15,34,10.90
2017,04,03,15,35,10.80
2017,04,03,15,36,10.80
2017,04,03,15,37,10.70
2017,04,03,15,38,10.70
2017,04,03,15,39,10.80
2017,04,03,15,40,10.80
2017,04,03,15,41,10.80
2017,04,03,15,42,10.90
2017,04,03,15,43,10.90
2017,04,03,15,44,10.90
2017,04,03,15,45,11.00
2017,04,03,15,46,11.00
2017,04,03,15,47,11.00
2017,04,03,15,48,11.00
2017,04,03,15,49,11.00
2017,04,03,15,50,11.00
2017,04,03,15,51,10.90
2017,04,03,15,52,10.90
2017,04,03,15,53,10.80
2017,04,03,15,54,10.80
2017,04,03,15,55,10.70
2017,04,03,15,56,10.70
2017,04,03,15,57,10.70
2017,04,03,15,58,10.70
2017,04,03,15,59,10.70
2017,04,03,16,00,10.70
2017,04,03,16,01,10.70
2017,04,03,16,02,10.70
2017,04,03,16,03,10.80
2017,04,03,16,04,10.80
2017,04,03,16,05,10.80
2017,04,03,16,06,10.80
2017,04,03,16,07,10.70
2017,04,03,16,08,10.70
2017,04,03,16,09,10.60
2017,04,03,16,10,10.60
2017,04,03,16,11,10.60
2017,04,03,16,12,10.60
2017,04,03,16,13,10.60
2017,04,03,16,14,10.70
2017,04,03,16,15,10.70
2017,04,03,16,16,10.70
2017,04,03,16,17,10.80
2017,04,03,16,18,10.80
2017,04,03,16,19,10.80
2017,04,03,16,20,10.80
2017,04,03,16,21,10.90
2017,04,03,16,22,10.90
2017,04,03,16,23,10.90
2017,04,03,16,24,11.00
2017,04,03,16,25,11.00
2017,04,03,16,26,11.10
2017,04,03,16,27,11.10
2017,04,03,16,28,11.10
2017,04,03,16,29,11.10
2017,04,03,16,30,11.20
2017,04,03,16,31,11.20
2017,04,03,16,32,11.10
2017,04,03,16,33,11.10
2017,04,03,16,34,11.00
2017,04,03,16,35,11.00
2017,04,03,16,36,10.90
2017,04,03,16,37,10.90
2017,04,03,16,38,10.80
2017,04,03,16,39,10.80
2017,04,03,16,40,10.80
2017,04,03,16,41,10.80
2017,04,03,16,42,10.80
2017,04,03,16,43,10.80
2017,04,03,16,44,10.70
2017,04,03,16,45,10.70
2017,04,03,16,46,10.70
2017,04,03,16,47,10.70
2017,04,03,16,48,10.70
2017,04,03,16,49,10.80
2017,04,03,16,50,10.80
2017,04,03,16,51,10.80
2017,04,03,16,52,10.80
2017,04,03,16,53,10.80
2017,04,03,16,54,10.80
2017,04,03,16,55,10.80
2017,04,03,16,56,10.80
2017,04,03,16,57,10.80
2017,04,03,16,58,10.80
2017,04,03,16,59,10.80
2017,04,03,17,00,10.80
2017,04,03,17,01,10.80
2017,04,03,17,02,10.80
2017,04,03,17,03,10.80
2017,04,03,17,04,10.80
2017,04,03,17,05,10.80
2017,04,03,17,06,10.80
2017,04,03,17,07,10.80
2017,04,03,17,08,10.80
2017,04,03,17,09,10.80
2017,04,03,17,10,10.70
2017,04,03,17,11,10.70
2017,04,03,17,12,10.70
2017,04,03,17,13,10.60
2017,04,03,17,14,10.60
2017,04,03,17,15,10.60
2017,04,03,17,16,10.60
2017,04,03,17,17,10.60
2017,04,03,17,18,10.60
2017,04,03,17,19,10.60
2017,04,03,17,20,10.60
2017,04,03,17,21,10.60
2017,04,03,17,22,10.60
2017,04,03,17,23,10.60
2017,04,03,17,24,10.60
2017,04,03,17,25,10.60
2017,04,03,17,26,10.60
2017,04,03,17,27,10.60
2017,04,03,17,28,10.60
2017,04,03,17,29,10.60
2017,04,03,17,30,10.70
2017,04,03,17,31,10.70
2017,04,03,17,32,10.70
2017,04,03,17,33,10.70
2017,04,03,17,34,10.60
2017,04,03,17,35,10.60
2017,04,03,17,36,10.60
2017,04,03,17,37,10.70
2017,04,03,17,38,10.70
2017,04,03,17,39,10.70
2017,04,03,17,40,10.60
2017,04,03,17,41,10.60
2017,04,03,17,42,10.60
2017,04,03,17,43,10.60